Regional Weather Roundup
Issued by NWS

Home | Current Version | Previous Version | Text Only | Print | Product List | Glossary Off
Versions: 1 2 3 4 5 6 7 8 9 10 11 12 13 14 15 16 17 18 19 20 21 22 23 24 25 26 27

000
ASUS45 KBOU 121610
RWRCO

WEATHER ROUNDUP FOR COLORADO
NATIONAL WEATHER SERVICE DENVER/BOULDER CO
900 AM MST TUE DEC 12 2017

NOTE: "FAIR" INDICATES FEW OR NO CLOUDS BELOW 12000 FEET WITH NO
SIGNIFICANT WEATHER AND/OR OBSTRUCTIONS TO VISIBILITY.

COZ001>005-013-030-031-121700-
...NORTHWEST COLORADO...

CITY           SKY/WX    TMP DP  RH WIND       PRES   REMARKS
CRAIG          FAIR      15   9  76 NW3       30.54S
HAYDEN         FAIR      24  13  62 E16       30.55S WCI  11
MEEKER         FAIR      25  15  66 CALM      30.54R
RABBIT EARS PA FAIR      30   9  40 W5        30.57S WCI  25
STEAMBOAT SPGS FAIR      17  11  77 CALM      30.54F
WALDEN         FAIR      16   9  73 CALM      30.55R
$$

COZ006>008-011-121700-
...WEST CENTRAL VALLEYS...

CITY           SKY/WX    TMP DP  RH WIND       PRES   REMARKS
GRAND JUNCTION FAIR      31   7  36 E3        30.53S
MONTROSE       FAIR      29  11  47 SE3       30.58R
EAGLE          FAIR      12   6  77 CALM      30.66F
RIFLE          FAIR      27  11  51 E3        30.57S
DELTA          FAIR      25   2  38 CALM      30.57S
NUCLA          FAIR      27   1  33 CALM      30.56S
$$

COZ017>023-064>068-121700-
...SOUTHWEST COLORADO...

CITY           SKY/WX    TMP DP  RH WIND       PRES   REMARKS
DURANGO        FAIR      27   4  37 CALM      30.51S
CORTEZ         FAIR      26   5  40 NE3       30.52S
PAGOSA SPRINGS FAIR      35  -2  20 CALM      30.53R
TELLURIDE      FAIR      37   1  22 CALM      30.57R
WOLF CREEK PAS NOT AVBL
$$

COZ009-010-012-014-032>034-037-058>063-121700-
...CENTRAL COLORADO...

CITY           SKY/WX    TMP DP  RH WIND       PRES   REMARKS
ASPEN          FAIR      29  14  53 S5        30.56S WCI  24
BUENA VISTA    FAIR      38  10  31 NW17G23   30.50S
COPPER MTN     NOT AVBL
BERTHOUD PASS  FAIR      21  10  63 NW18G26   30.58F WCI   6
COTTONWOOD PAS FAIR      45   5  19 W6        30.55R
GUNNISON       NOT AVBL
KREMMLING      FAIR      12   7  79 CALM      30.65F HAZE
LEADVILLE      FAIR      28   7  41 NE8       30.57R WCI  20
MONARCH PASS   FAIR      30   1  29 W10       30.72S WCI  21
SALIDA         FAIR      37  10  32 NW10      30.58S
SUNLIGHT       FAIR      32  10  40 CALM      30.64S
WILKERSON PASS FAIR      34   5  29 NW9G18    30.59R WCI  26
$$

COZ069>075-121700-
...SAN LUIS VALLEY/SANGRE DE CRISTO MOUNTAINS...

CITY           SKY/WX    TMP DP  RH WIND       PRES   REMARKS
ALAMOSA        FAIR      22   4  46 CALM      30.54S
DEL NORTE      FAIR      34   3  27 SW6       30.54S WCI  28
LA VETA PASS   FAIR      32   3  29 SW22        N/A  WCI  19
SAGUACHE       FAIR      30   3  31 CALM      30.55S
$$

COZ035-036-038>040-121700-
...NORTHERN COLORADO FRONT RANGE...

CITY           SKY/WX    TMP DP  RH WIND       PRES   REMARKS
DENVER INTL AP FAIR      46   9  22 SW13      30.32F
DMNS CITY PARK NOT AVBL
AURORA         MOSUNNY   46   9  22 S9        30.34S
FRONT RANGE AP SUNNY     46  10  23 S13G18    30.34S
ERIE MUNI ARPT FAIR      38  15  39 CALM      30.38S
BOULDER MUN AP FAIR      43  18  36 CALM      30.31F
CENTENNIAL     FAIR      50  14  23 SW7       30.35S
BROOMFIELD     SUNNY     39  14  35 VRB3      30.34R
FORT COLLINS   FAIR      38  15  39 S5        30.33R
LONGMONT       FAIR      38  20  47 CALM      30.34S
$$

COZ041-046-047-076>085-087-088-121700-
...PIKES PEAK/PALMER DIVIDE AND SOUTHERN FOOTHILLS...

CITY           SKY/WX    TMP DP  RH WIND       PRES   REMARKS
COLO. SPRINGS  FAIR      46  10  23 N6        30.40S
A. F. ACADEMY  FAIR      37   8  30 N7        30.40R
SCHRIEVER AFB  FAIR      49   3  15 CALM      30.39F
CHEYENNE MTN   FAIR      49   5  16 CALM      30.35S
ELLICOTT         N/A    N/A N/A N/A N3        30.38S
FALCON         FAIR      47   4  17 W5        30.42R
FORT CARSON    FAIR      39   8  28 NW6       30.38S
LIMON          FAIR      40  10  29 NW3       30.36R
MONUMENT HILL  FAIR      43  10  26 SW7       30.41R
CANON CITY     FAIR      45  10  24 W9        30.39S
WALSENBURG     FAIR      50   9  18 CALM      30.41S
TRINIDAD       FAIR      43  10  26 W13       30.42R
$$

COZ042>045-048>051-090-091-121700-
...NORTHEAST COLORADO...

CITY           SKY/WX    TMP DP  RH WIND       PRES   REMARKS
GREELEY ARPT   FAIR      27  15  61 NW3       30.35S
AKRON          FAIR      37  10  32 W16       30.30F
BURLINGTON     FAIR      46  15  28 W10       30.32S
WRAY           FAIR      37  14  38 W8        30.30F
YUMA           FAIR      37  14  38 W15       30.30F
STERLING       FAIR      30  14  51 S9        30.30F WCI  22
HOLYOKE        FAIR      43  18  36 W13       30.28S
FORT MORGAN    FAIR      35  11  37 W9        30.33S WCI  27
$$

COZ086-089-092>099-121700-
...SOUTHEAST COLORADO...

CITY           SKY/WX    TMP DP  RH WIND       PRES   REMARKS
PUEBLO         FAIR      34   9  35 SW7       30.39F WCI  28
LA JUNTA       FAIR      34   9  35 W12       30.39S WCI  25
LAMAR          FAIR      37  11  34 W12       30.37S
SPRINGFIELD      N/A     47  10  22 SW9       30.37F
$$




USA.gov is the U.S. government's official web portal to all federal, state and local government web resources and services.